Location: Austin
(30.3000°N, 97.7500°W)
Time: 04:08:18
(UTC-06:00)

Cosmos 1602 Rocket - Pass Details

Date: 20 November 2023
Orbit: 601 x 631 km, 82.5° (Epoch: 04 December)

Event Time Altitude Azimuth Distance (km) Brightness Sun altitude
Rises 18:03:12 0° 359° (N) 2,868 6.8 -7.1°
Reaches altitude 10° 18:05:28 10° 4° (N) 1,957 5.9 -7.5°
Maximum altitude 18:09:43 55° 82° (E) 724 3.6 -8.4°
Drops below altitude 10° 18:13:55 10° 161° (SSE) 1,935 6.1 -9.3°
Sets 18:16:08 0° 166° (SSE) 2,833 7.0 -9.7°
